Location: Cointrin
(46.2167°N, 6.1167°E)
Time: 15:51:32
(UTC+00:00)

Cosmos 883 Rocket - Pass Details

Date: 08 February 2023
Orbit: 950 x 995 km, 83.0° (Epoch: 22 March)

Event Time Altitude Azimuth Distance (km) Brightness Sun altitude
Rises 18:26:15 0° 178° (S) 3,669 7.5 -17.0°
Reaches altitude 10° 18:28:45 10° 176° (S) 2,731 6.8 -17.4°
Maximum altitude 18:34:58 70° 95° (E) 1,053 4.4 -18.5°
Drops below altitude 10° 18:41:18 10° 13° (NNE) 2,770 6.7 -19.6°
Sets 18:43:51 0° 11° (N) 3,725 7.4 -20.0°
